Location: Rosenheim
(47.8408°N, 12.2113°E)
Time: 12:24:45
(UTC+01:00)

ISS - Pass Details

Date: 15 November 2017
Orbit: 401 x 407 km, 51.6° (Epoch: 25 November)

Event Time Altitude Azimuth Distance (km) Brightness Sun altitude
Exits shadow 04:55:40 38° 114° (ESE) 631 -2.4 -23.6°
Drops below altitude 10° 04:57:48 10° 114° (ESE) 1,451 -0.1 -23.2°
Sets 04:59:52 0° 115° (ESE) 2,308 1.2 -22.9°
